User: anonymous   Login
Location: Bushey
(51.6333°N, 0.3667°W)
Time: 13:52:07
(UTC+00:00)
Language:

Cosmos 1066 Rocket - Orbit

View from above orbital plane
View from above orbital plane
View from above satellite
View from above satellite

Ground track
Ground track

The orbit data is extracted from the following two-line orbital elements,

1 11166U 78121B   21128.96817541  .00000054  00000-0  21033-4 0  9991
2 11166  81.2414 229.2399 0066654 174.4341 185.7589 14.13775195184834
Epoch (UTC): 08 May 2021 23:14:10
Eccentricity: 0.0066654
inclination: 81.2414°
perigee height: 798 km
apogee height: 894 km
right ascension of ascending node: 229.2399°
argument of perigee: 174.4341°
revolutions per day: 14.13775195
mean anomaly at epoch: 185.7589°
orbit number at epoch: 18483

The dashed part of the orbit path shows where the satellite is in the earth's shadow,  

DLR